TimeEST,TemperatureF,Dew PointF,Humidity,Sea Level PressureIn,VisibilityMPH,Wind Direction,Wind SpeedMPH,Gust SpeedMPH,PrecipitationIn,Events,Conditions,WindDirDegrees,DateUTC
12:56 AM,54.0,51.1,90,30.28,9.0,Calm,Calm,-,N/A,,Clear,0,2012-12-04 05:56:00
1:56 AM,54.0,51.1,90,30.27,9.0,South,4.6,-,N/A,,Scattered Clouds,170,2012-12-04 06:56:00
2:56 AM,55.0,51.1,86,30.27,10.0,SSW,3.5,-,N/A,,Mostly Cloudy,200,2012-12-04 07:56:00
3:56 AM,54.0,50.0,86,30.26,9.0,Calm,Calm,-,N/A,,Partly Cloudy,0,2012-12-04 08:56:00
4:56 AM,53.1,48.9,86,30.27,8.0,SSW,3.5,-,N/A,,Scattered Clouds,200,2012-12-04 09:56:00
5:56 AM,50.0,48.0,93,30.27,6.0,Calm,Calm,-,N/A,Fog,Partly Cloudy,0,2012-12-04 10:56:00
6:56 AM,51.1,48.9,92,30.29,7.0,SW,3.5,-,N/A,Fog,Patches of Fog,220,2012-12-04 11:56:00
7:56 AM,52.0,51.1,97,30.29,7.0,SW,3.5,-,N/A,,Scattered Clouds,220,2012-12-04 12:56:00
8:56 AM,59.0,53.1,81,30.31,10.0,SW,6.9,-,N/A,,Scattered Clouds,220,2012-12-04 13:56:00
9:56 AM,64.9,54.0,68,30.31,10.0,WSW,5.8,-,N/A,,Scattered Clouds,240,2012-12-04 14:56:00
10:56 AM,69.1,55.0,61,30.29,10.0,SW,6.9,-,N/A,,Scattered Clouds,230,2012-12-04 15:56:00
11:56 AM,73.0,53.1,49,30.26,10.0,SW,10.4,-,N/A,,Scattered Clouds,220,2012-12-04 16:56:00
12:56 PM,73.0,52.0,48,30.23,10.0,WSW,11.5,-,N/A,,Scattered Clouds,240,2012-12-04 17:56:00
1:56 PM,73.9,50.0,43,30.20,10.0,WSW,13.8,20.7,N/A,,Scattered Clouds,240,2012-12-04 18:56:00
2:56 PM,73.9,48.9,41,30.19,10.0,WSW,12.7,21.9,N/A,,Scattered Clouds,240,2012-12-04 19:56:00
3:56 PM,72.0,48.9,44,30.18,10.0,SSW,9.2,18.4,N/A,,Scattered Clouds,210,2012-12-04 20:56:00
4:56 PM,69.1,51.1,53,30.19,10.0,South,8.1,-,N/A,,Scattered Clouds,190,2012-12-04 21:56:00
5:56 PM,66.9,52.0,59,30.19,10.0,South,6.9,-,N/A,,Partly Cloudy,190,2012-12-04 22:56:00
6:56 PM,63.0,52.0,67,30.19,10.0,South,5.8,-,N/A,,Clear,170,2012-12-04 23:56:00
7:56 PM,62.1,52.0,70,30.19,10.0,South,9.2,-,N/A,,Clear,190,2012-12-05 00:56:00
8:56 PM,62.1,53.1,72,30.18,10.0,SSW,10.4,-,N/A,,Partly Cloudy,200,2012-12-05 01:56:00
9:56 PM,61.0,54.0,78,30.17,10.0,SSW,10.4,-,N/A,,Partly Cloudy,210,2012-12-05 02:56:00
10:56 PM,61.0,54.0,78,30.16,10.0,SSW,11.5,-,N/A,,Scattered Clouds,210,2012-12-05 03:56:00
11:56 PM,61.0,55.0,81,30.15,10.0,SW,12.7,-,N/A,,Scattered Clouds,220,2012-12-05 04:56:00